Content
SEND FEEDBACK

Daily
Averages
Monthly
Summary
United States of America

WHARTON, TEXAS


Home > North America > United States > Texas
Elevation: 110 feet     Latitude: 29 18N     Longitude: 096 06W

WEATHER
 
SELECT A DAY
Number of Records: 225,914;   Date Range: 1/27/05 - 7/27/14
 
SHARE

PRINT THIS DATA

[ ← Previous Day ]
WEATHER ALMANAC - FEBRUARY 13, 2013
[ Next Day → ]
[ °C ]   °F
Weather ElementAverageHighLow
Temperature49.9 °F60.8 °F (3:55 pm)42.8 °F (7:35 am)
Dewpoint39.1 °F50 °F (12:35 am)35.6 °F (9:55 am)
Humidity68.3 %93 % (11:55 pm)42 % (3:55 pm)
Barometer30.09 in30.16 in (10:55 am)30.02 in (12:35 am)
Wind Speed9.2 mph16.1 mph (5:55 am)
Wind Gust20.7 mph (6:35 am)
Weather ElementAverage
Visibility10 mi
Wind DirectionWNW (301.8 °)

Weather ElementTotal
Precipitation---
Heating Degree Days13.2 (Base 65)
Growing Degree Days1.8 (Base 50)
Averaged from 71 records on February 13, 2013
WEATHER CONDITIONS BREAKOUT
WIND DIRECTION BREAKOUT
WEATHER BY HOUR - FEBRUARY 13, 2013
[ °C ]   °F
Local TimeTemperatureDewpointHumidityBarometerVisibilityWind DirectionWind SpeedGust SpeedPrecipitationEventsConditions
12:35 AM55.4 °F50.0 °F82 %30.02 in10.0 miNorth (10°)8.1 mphOvercast
12:55 AM55.4 °F50.0 °F82 %30.03 in10.0 miNorth (350°)9.2 mphOvercast
1:15 AM53.6 °F50.0 °F88 %30.05 in10.0 miNNW (340°)10.4 mphRainLight Rain
1:35 AM53.6 °F46.4 °F77 %30.04 in10.0 miNorth (350°)12.7 mph19.6 mphRainLight Rain
1:55 AM51.8 °F46.4 °F82 %30.06 in10.0 miNorth (350°)10.4 mph17.3 mphRainLight Rain
2:15 AM51.8 °F46.4 °F82 %30.03 in10.0 miNorth (360°)9.2 mphRainLight Rain
2:35 AM51.8 °F46.4 °F82 %30.04 in10.0 miNorth (350°)5.8 mphRainLight Rain
2:55 AM51.8 °F46.4 °F82 %30.06 in10.0 miNorth (350°)4.6 mphRainLight Rain
3:15 AM50.0 °F46.4 °F87 %30.03 in10.0 miNNW (340°)10.4 mphLight Drizzle
3:35 AM50.0 °F44.6 °F82 %30.05 in10.0 miNorth (350°)12.7 mph17.3 mphRainLight Rain
3:55 AM50.0 °F42.8 °F76 %30.06 in10.0 miNNW (340°)10.4 mphRainLight Rain
4:15 AM48.2 °F42.8 °F82 %30.08 in10.0 miNNW (330°)10.4 mphRainLight Rain
4:35 AM46.4 °F41.0 °F81 %30.07 in10.0 miNNW (330°)12.7 mphRainLight Rain
4:55 AM46.4 °F41.0 °F81 %30.08 in10.0 miNNW (340°)11.5 mphOvercast
5:15 AM46.4 °F39.2 °F76 %30.11 in10.0 miNW (320°)13.8 mph19.6 mphMostly Cloudy
5:35 AM46.4 °F39.2 °F76 %30.09 in10.0 miNNW (330°)12.7 mphOvercast
5:55 AM44.6 °F37.4 °F76 %30.10 in10.0 miNNW (330°)16.1 mphOvercast
6:15 AM44.6 °F37.4 °F76 %30.10 in10.0 miNNW (340°)15.0 mphScattered Clouds
6:35 AM44.6 °F37.4 °F76 %30.11 in10.0 miNNW (340°)12.7 mph20.7 mphClear
6:55 AM44.6 °F37.4 °F76 %30.12 in10.0 miNNW (340°)15.0 mph18.4 mphScattered Clouds
7:15 AM44.6 °F37.4 °F76 %30.12 in10.0 miNNW (340°)15.0 mph18.4 mphScattered Clouds
7:35 AM42.8 °F37.4 °F81 %30.11 in10.0 miNNW (340°)15.0 mphClear
7:55 AM42.8 °F37.4 °F81 %30.11 in10.0 miNNW (340°)12.7 mph18.4 mphMostly Cloudy
8:15 AM44.6 °F37.4 °F76 %30.12 in10.0 miNNW (340°)12.7 mphOvercast
8:35 AM44.6 °F37.4 °F76 %30.13 in10.0 miNorth (350°)13.8 mphMostly Cloudy
8:55 AM44.6 °F37.4 °F76 %30.13 in10.0 miNorth (360°)13.8 mph20.7 mphMostly Cloudy
9:15 AM44.6 °F37.4 °F76 %30.15 in10.0 miNorth (360°)10.4 mphMostly Cloudy
9:35 AM44.6 °F37.4 °F76 %30.15 in10.0 miNorth (360°)11.5 mphMostly Cloudy
9:55 AM46.4 °F35.6 °F66 %30.15 in10.0 miNorth (360°)13.8 mphScattered Clouds
10:15 AM46.4 °F37.4 °F71 %30.15 in10.0 miNNW (340°)16.1 mph20.7 mphScattered Clouds
10:35 AM46.4 °F37.4 °F71 %30.15 in10.0 miNorth (350°)15.0 mphScattered Clouds
10:55 AM46.4 °F37.4 °F71 %30.16 in10.0 miNorth (350°)13.8 mph18.4 mphClear
11:15 AM46.4 °F35.6 °F66 %30.16 in10.0 miNorth (360°)12.7 mph18.4 mphClear
11:35 AM50.0 °F37.4 °F62 %30.15 in10.0 miNorth (350°)10.4 mphClear
11:55 AM53.6 °F37.4 °F54 %30.15 in10.0 miNNW (330°)9.2 mph17.3 mphClear
12:15 PM53.6 °F37.4 °F54 %30.14 in10.0 miNNW (330°)8.1 mph17.3 mphClear
12:35 PM55.4 °F37.4 °F51 %30.13 in10.0 miNNW (340°)13.8 mphClear
12:55 PM55.4 °F37.4 °F51 %30.12 in10.0 miNorth (360°)10.4 mphClear
1:15 PM55.4 °F37.4 °F51 %30.11 in10.0 miNNE (20°)8.1 mphClear
1:35 PM57.2 °F37.4 °F48 %30.10 in10.0 miNNW (330°)13.8 mphClear
1:55 PM57.2 °F37.4 °F48 %30.09 in10.0 miNW (320°)11.5 mphClear
2:15 PM59.0 °F37.4 °F45 %30.08 in10.0 miNNW (340°)10.4 mphClear
2:35 PM59.0 °F37.4 °F45 %30.08 in10.0 miNNW (330°)6.9 mphClear
2:55 PM59.0 °F37.4 °F45 %30.07 in10.0 miNNW (340°)10.4 mph16.1 mphClear
3:15 PM59.0 °F37.4 °F45 %30.06 in10.0 miNNW (340°)10.4 mphClear
3:35 PM59.0 °F37.4 °F45 %30.06 in10.0 miNorth (350°)10.4 mphClear
3:55 PM60.8 °F37.4 °F42 %30.06 in10.0 miNNW (340°)10.4 mph16.1 mphClear
4:15 PM59.0 °F37.4 °F45 %30.05 in10.0 miNorth (350°)8.1 mphClear
4:35 PM59.0 °F37.4 °F45 %30.06 in10.0 miNorth (350°)10.4 mphClear
4:55 PM59.0 °F37.4 °F45 %30.06 in10.0 miNNW (340°)9.2 mphClear
5:15 PM59.0 °F37.4 °F45 %30.06 in10.0 miNNW (340°)9.2 mphClear
5:35 PM57.2 °F39.2 °F51 %30.06 in10.0 miNNW (340°)8.1 mphClear
5:55 PM55.4 °F37.4 °F51 %30.06 in10.0 miNNW (340°)6.9 mphClear
6:15 PM53.6 °F37.4 °F54 %30.06 in10.0 miNorth (350°)5.8 mphClear
6:35 PM51.8 °F37.4 °F58 %30.06 in10.0 miNorth (360°)4.6 mphClear
6:55 PM51.8 °F37.4 °F58 %30.06 in10.0 miNorth (350°)4.6 mphClear
7:15 PM48.2 °F37.4 °F66 %30.07 in10.0 miNorth (350°)4.6 mphClear
7:35 PM46.4 °F37.4 °F71 %30.07 in10.0 miNorth (360°)3.5 mphClear
7:55 PM46.4 °F37.4 °F71 %30.08 in10.0 miNorth (350°)3.5 mphClear
8:15 PM46.4 °F37.4 °F71 %30.08 in10.0 miNorth (360°)3.5 mphClear
8:35 PM46.4 °F37.4 °F71 %30.08 in10.0 miNorth (350°)3.5 mphClear
8:55 PM46.4 °F37.4 °F71 %30.08 in10.0 miNorth (350°)4.6 mphClear
9:15 PM44.6 °F37.4 °F76 %30.09 in10.0 miNorth (350°)4.6 mphClear
9:35 PM44.6 °F37.4 °F76 %30.10 in10.0 miNorth (360°)4.6 mphClear
9:55 PM42.8 °F37.4 °F81 %30.10 in10.0 miNorth (10°)3.5 mphClear
10:15 PM44.6 °F37.4 °F76 %30.11 in10.0 miCalmClear
10:35 PM44.6 °F37.4 °F76 %30.11 in10.0 miNorth (10°)3.5 mphClear
10:55 PM42.8 °F37.4 °F81 %30.11 in10.0 miCalmClear
11:15 PM42.8 °F37.4 °F81 %30.12 in10.0 miCalmClear
11:35 PM42.8 °F39.2 °F87 %30.12 in10.0 miCalmClear
11:55 PM42.8 °F41.0 °F93 %30.12 in10.0 miCalmClear
Hourly data recorded from KARM, located miles away from Wharton, Texas







STORIES FROM OUR PARTNERS